TimeCST,TemperatureF,Dew PointF,Humidity,Sea Level PressureIn,VisibilityMPH,Wind Direction,Wind SpeedMPH,Gust SpeedMPH,PrecipitationIn,Events,Conditions,WindDirDegrees,DateUTC
12:07 AM,3.9,-2.0,76,30.44,2.0,North,24.2,28.8,0.00,Snow,Light Snow,350,2014-02-05 06:07:00
12:10 AM,3.9,-2.0,76,30.44,2.0,North,24.2,28.8,0.00,Snow,Light Snow,350,2014-02-05 06:10:00
12:34 AM,3.0,-2.9,76,30.45,3.0,North,24.2,31.1,0.00,Snow,Light Snow,350,2014-02-05 06:34:00
12:53 AM,3.0,-2.9,76,30.58,2.5,North,24.2,-,0.00,Snow,Light Snow,360,2014-02-05 06:53:00
1:34 AM,3.0,-4.0,73,30.46,3.0,North,25.3,-,0.00,Snow,Light Snow,350,2014-02-05 07:34:00
1:42 AM,3.0,-4.0,73,30.46,2.5,North,27.6,35.7,0.00,Snow,Light Snow,360,2014-02-05 07:42:00
1:53 AM,3.0,-2.9,76,30.59,3.0,North,18.4,-,0.00,Snow,Light Snow,350,2014-02-05 07:53:00
2:02 AM,3.0,-2.9,76,30.47,2.5,North,21.9,-,0.00,Snow,Light Snow,360,2014-02-05 08:02:00
2:11 AM,3.0,-4.0,73,30.47,3.0,North,24.2,-,0.00,Snow,Light Snow,360,2014-02-05 08:11:00
2:53 AM,3.0,-4.0,73,30.61,5.0,North,24.2,-,0.00,Snow,Light Snow,360,2014-02-05 08:53:00
3:53 AM,3.0,-4.0,73,30.62,5.0,North,19.6,-,0.01,Snow,Light Snow,360,2014-02-05 09:53:00
4:53 AM,3.0,-4.0,73,30.65,7.0,North,19.6,-,0.00,,Overcast,360,2014-02-05 10:53:00
5:53 AM,1.0,-6.0,72,30.67,10.0,North,13.8,-,N/A,,Clear,360,2014-02-05 11:53:00
6:44 AM,-2.9,-9.0,75,30.55,10.0,North,9.2,-,N/A,,Mostly Cloudy,350,2014-02-05 12:44:00
6:53 AM,-2.9,-9.0,75,30.70,10.0,North,9.2,-,N/A,,Scattered Clouds,350,2014-02-05 12:53:00
7:53 AM,-2.9,-9.0,75,30.72,10.0,NNW,11.5,-,N/A,,Clear,340,2014-02-05 13:53:00
8:53 AM,-0.0,-7.1,72,30.73,10.0,NNW,16.1,-,N/A,,Clear,340,2014-02-05 14:53:00
9:53 AM,1.9,-7.1,66,30.76,10.0,North,17.3,-,N/A,,Clear,350,2014-02-05 15:53:00
10:53 AM,3.9,-7.1,60,30.76,10.0,North,20.7,-,N/A,,Clear,350,2014-02-05 16:53:00
11:53 AM,5.0,-8.0,55,30.75,10.0,North,23.0,28.8,N/A,,Clear,360,2014-02-05 17:53:00
12:53 PM,6.1,-6.0,58,30.76,10.0,North,18.4,-,N/A,,Clear,350,2014-02-05 18:53:00
1:53 PM,7.0,-6.0,55,30.73,10.0,NNW,20.7,-,N/A,,Clear,340,2014-02-05 19:53:00
2:53 PM,8.1,-5.1,55,30.72,10.0,North,18.4,-,N/A,,Clear,350,2014-02-05 20:53:00
3:53 PM,8.1,-6.0,53,30.73,10.0,NNW,19.6,-,N/A,,Clear,340,2014-02-05 21:53:00
4:53 PM,8.1,-6.0,53,30.73,10.0,NNW,20.7,-,N/A,,Clear,340,2014-02-05 22:53:00
5:53 PM,3.9,-7.1,60,30.74,10.0,North,12.7,-,N/A,,Clear,350,2014-02-05 23:53:00
6:53 PM,1.9,-8.0,63,30.76,10.0,NNW,9.2,-,N/A,,Clear,340,2014-02-06 00:53:00
7:53 PM,1.0,-9.9,60,30.77,10.0,NNW,9.2,-,N/A,,Clear,330,2014-02-06 01:53:00
8:53 PM,-4.0,-14.1,62,30.78,10.0,NW,8.1,-,N/A,,Clear,320,2014-02-06 02:53:00
9:53 PM,-2.9,-13.0,62,30.78,10.0,NW,9.2,-,N/A,,Clear,320,2014-02-06 03:53:00
10:53 PM,-5.1,-14.1,65,30.76,10.0,NW,8.1,-,N/A,,Clear,320,2014-02-06 04:53:00
11:53 PM,-9.0,-17.0,68,30.76,10.0,NW,8.1,-,N/A,,Clear,310,2014-02-06 05:53:00